NIMBUS 2 DEB, 37892

Orbit data source: Space-Track

NIMBUS 2 DEB, 37892 is space debris in SSO originally from a launch on Sun, 15 May 1966 UTC launched from the Air Force Western Test Range (AFWTR). Debris objects in space refer to the collection of defunct objects orbiting the Earth. Examples of debris include non-operational satellites, rocket bodies, and fragments generated from explosions, collisions, or faulty payload assembly.

Loading next visibility...
Identifier
37892, 1966-040AX
Orbit
SSO
Country
Flag of USUS
Related business
Manufacturer
Unknown
Mission
Spacecraft
Bus & Motor
Unknown
Mass
Unknown
Launch date (UTC)
1966-05-15 (60 years ago)
Launch vehicle
Unknown
Launch site
Air Force Western Test Range (AFWTR)
Object type
Payload
Rocket body
Debris
Shape & HBR
Unknown shape, 0.1 m
Radar Cross Section
Small (<0.1 m²)

Expand to show TLE details & history
Last TLE update: 14 hours ago

TLE from 14 hours ago
0 NIMBUS 2 DEB
1 37892U 66040AX  25346.81265688  .00002852  00000-0  46992-2 0  9998
2 37892 100.5091 291.4669 0051772 286.0105 102.3252 13.47560610336772
Epoch: 2025-12-12T19:30Z
TLE epoch observation values (Epoch: 2025-12-12T19:30:13.554Z)
Latitude
28.42935°
Longitude
-88.57243°
Altitude
1,093.047 km
Speed
7.304 km/s
True Right ascension
19h 02m 55s
True Declination
28° 17' 31"
Sunlit
Object was in daylight at epoch
Visualization orbit readout
Latitude
Unknown
Longitude
Unknown
Altitude
Unknown
Speed
Unknown
Apparent Right ascension
Unknown
Apparent Declination
Unknown
Sunlit
N/A
Visualization observer readout
Local Sidereal Time
08:16:44
Azimuth
Unknown
Elevation
Unknown
Doppler factor
Unknown
Orbital elements
Apogee altitude
1,117.2 km
Perigee altitude
1,039.99 km
Semi-major axis
7,456.732 km
Eccentricity
0.00518
Inclination
100.5091°
RAAN
291.4669°
Arg. of periapsis
286.0105°
True anomaly
102.90398°
Mean anomaly
102.3252°
Eccentric anomaly
102.61467°
Mean motion
3.3707 °/min
Orbital period
106.8 mins
BSTAR
0.0046992
Loading maneuver chart data...
Computing Atmospheric mass density...
Loading historical data...
Loading historical data...
Loading historical data...
Loading historical data...
Loading historical data...
Loading historical data...
Loading historical data...

Documentation

Showing up to 5 results
|